{"data":{"norad_id":66938,"epoch":"2026-09-20T11:15:23.679648Z","epoch_age_seconds":86696,"freshness":"FRESH","line1":"1 66938U 25286P   26263.46902407  .00014564  00000+0  44141-3 0  9992","line2":"2 66938  53.1587 169.7985 0001843  88.2884 271.8329 15.34395218 45295","mean_motion":15.34395218,"eccentricity":0.0001843,"inclination_deg":53.1587,"raan_deg":169.7985,"arg_perigee_deg":88.2884,"mean_anomaly_deg":271.8329,"bstar":0.00044141,"rev_number":4529,"period_min":93.848050561378,"perigee_km":461.45668388003,"apogee_km":463.97822283153,"semimajor_km":6840.8544533558,"source":"CELESTRAK","updated_at":"2026-09-21T09:00:36.058401Z"}}